Regional Weather Roundup
Issued by NWS Cleveland, OH

Home | Current Version | Previous Version | Text Only | Print | Product List | Glossary Off
Versions: 1 2 3 4 5 6 7 8 9 10 11 12 13 14 15 16 17 18 19 20 21 22 23 24 25 26 27 28 29 30 31 32 33 34 35 36 37 38 39 40 41 42 43 44 45 46 47 48 49 50

000
ASUS41 KCLE 251310
RWRCLE
OHIO REGIONAL WEATHER ROUNDUP
NATIONAL WEATHER SERVICE CLEVELAND, OH
900 AM EDT FRI JUL 25 2014

NOTE: "FAIR" INDICATES FEW OR NO CLOUDS BELOW 12,000 FEET WITH NO
SIGNIFICANT WEATHER AND/OR OBSTRUCTIONS TO VISIBILITY.

OHZ001>008-015>018-024>027-034-035-043-044-251400-
   NORTHWEST OHIO

CITY           SKY/WX    TMP DP  RH WIND       PRES   REMARKS
DEFIANCE       SUNNY     64  55  72 S6        30.09F
FINDLAY        SUNNY     62  55  77 S7        30.10F
TOLEDO EXPRESS SUNNY     62  53  72 S7        30.09F
TOLEDO EXEC    SUNNY     63  52  67 SW7       30.11S
LIMA           SUNNY     62  53  72 S6        30.11F
$$

OHZ009>014-019>023-028>033-038-089-251400-
   NORTHEAST OHIO

CITY           SKY/WX    TMP DP  RH WIND       PRES   REMARKS
CLE-HOPKINS    MOSUNNY   63  54  72 SW5       30.12S
CLE-LAKEFRONT  SUNNY     66  53  63 S6        30.08F
CUY CO. ARPT   MOSUNNY   68  57  68 SW7       30.10F
LORAIN-ELYRIA  SUNNY     65  54  67 SW7       30.11F
ASHTABULA      SUNNY     62  55  77 VRB5      30.11F
AKRON-CANTON   MOSUNNY   64  52  64 CALM      30.12S
WOOSTER        SUNNY     63  54  72 CALM      30.13R
MANSFIELD      SUNNY     63  53  70 CALM      30.14R
YOUNGSTOWN     MOSUNNY   63  54  72 CALM      30.12R
$$

OHZ042-051>053-060>062-070>072-077>081-251400-
  SOUTHWEST OHIO

CITY           SKY/WX    TMP DP  RH WIND       PRES   REMARKS
CINC-COVINGTON MOSUNNY   66  54  65 SE7       30.10F
CINC-LUNKEN    SUNNY     64  58  80 CALM      30.11F
HAMILTON       SUNNY     63  57  81 CALM      30.11F
DAYTON         MOSUNNY   64  53  67 SE3       30.13F
WRIGHT-PAT AFB SUNNY     62  54  74 CALM      30.12F
DAYTON GENERAL SUNNY     64  54  69 VRB3      30.10F
WILMINGTON     SUNNY     63  53  70 SE6       30.11R
$$

OHZ036-037-039>041-045>050-054>059-063>069-073>076-082>088-251400-
  CENTRAL AND SOUTHEAST OHIO

CITY           SKY/WX    TMP DP  RH WIND       PRES   REMARKS
COLUMBUS       MOSUNNY   64  50  60 CALM      30.13R
OSU AIRPORT    SUNNY     63  52  67 CALM      30.14R
BOLTON FIELD   SUNNY     63  54  72 CALM      30.15R
RICKENBACK AFB MOSUNNY   63  51  63 CALM      30.14R
NEWARK         SUNNY     62  54  74 CALM      30.13R
MARION         SUNNY     62  54  74 CALM      30.15R
LANCASTER      MOSUNNY   62  55  77 CALM      30.13R
ZANESVILLE     SUNNY     60  52  74 CALM      30.13R
NEW PHILLY     SUNNY     60  54  80 CALM      30.13R
$$



USA.gov is the U.S. government's official web portal to all federal, state and local government web resources and services.